Location: Makanda
(37.6176°N, 89.2090°W)
Time: 09:07:20
(UTC+00:00)

CZ-2C R/B - Pass Details

Date: 23 September 2019
Orbit: 639 x 705 km, 98.4° (Epoch: 15 October)

Event Time Altitude Azimuth Distance (km) Brightness Sun altitude
Rises 01:33:49 0° 9° (N) 2,959 7.1 -20.3°
Reaches altitude 10° 01:36:02 10° 7° (N) 2,041 6.3 -20.7°
Maximum altitude 01:40:26 67° 286° (WNW) 696 3.9 -21.6°
Drops below altitude 10° 01:44:48 10° 204° (SSW) 2,025 6.2 -22.4°
Sets 01:47:00 0° 201° (SSW) 2,933 7.1 -22.8°
